Regional Weather Roundup
Issued by NWS

Home | Current Version | Previous Version | Text Only | Print | Product List | Glossary On
Versions: 1 2 3 4 5 6 7 8 9 10 11 12 13 14 15 16 17 18 19 20 21 22 23 24 25 26 27 28 29 30 31 32 33 34 35 36 37 38 39 40 41 42 43 44 45 46 47 48 49 50
106
ASUS44 KLIX 262011
RWRLA
LOUISIANA WEATHER ROUNDUP
NATIONAL WEATHER SERVICE NEW ORLEANS LA
300 PM CDT THU MAR 26 2015

NOTE: "FAIR" INDICATES FEW OR NO CLOUDS BELOW 12,000 FEET WITH NO
      SIGNIFICANT WEATHER AND/OR OBSTRUCTIONS TO VISIBILITY.
      SKY/WX - SKY CONDITION AND SIGNIFICANT WEATHER.
      TMP - AIR TEMPERATURE.    DP   - DEWPOINT TEMPERATURE.
      RH  - RELATIVE HUMIDITY.  PRES - PRESSURE.
      HX  - HEAT INDEX.         WCI  - WIND CHILL INDEX.

*  THESE STATIONS ARE NOT NWS OR FAA STATIONS AND ARE NOT UNDER
   NWS QUALITY CONTROL.

LAZ040-048-061>063-065-066-069-262100-
SOUTHEAST LOUISIANA

CITY           SKY/WX    TMP DP  RH WIND       PRES   REMARKS
N.O. AUDUBON     N/A     64  64  99 MISG        N/A
N.O. INTL ARPT LGT RAIN  63  59  87 SW8       29.85F
N.O. LAKEFRONT CLOUDY    65  59  81 S15       29.82F THUNDER
SLIDELL        LGT RAIN  67  64  90 S6        29.85R
BATON ROUGE    CLOUDY    70  63  78 S14       29.85F
BOOTHVILLE     LGT RAIN  66  65  96 W5        29.91R FOG
BELLE CHASSE   TSTM      64  60  87 S9        29.85F FOG
BOGALUSA*        N/A     73  65  78 SW5       29.87R
GALLIANO*      TSTM      61  60  96 CALM      29.89F
NEW ROADS*     TSTM      70  67  89 S7        29.84F
GONZALES*      LGT RAIN  65  65 100 S12       29.89F
HAMMOND*       CLOUDY    70  59  68 SW16      29.89R
HOUMA*         LGT RAIN  63  61  94 W5        29.93S FOG
PORT FOURCHON* PTCLDY    66  64  94 CALM      29.90F FOG

$$

LAZ041-044-053-054-262100-
SOUTHWEST LOUISIANA

CITY           SKY/WX    TMP DP  RH WIND       PRES   REMARKS
LAKE CHARLES   CLOUDY    71  63  75 NW12      29.87S
LAFAYETTE      CLOUDY    68  65  90 S8        29.86F
PATTERSON      CLOUDY    63  61  94 SE9       29.88F
SALT POINT       N/A     63  62  97 E7        29.85F
NEW IBERIA     CLOUDY    67  64  90 S13       29.86F
CHENAULT AIRPK CLOUDY    72  64  78 N9        29.88S

$$

LAZ027-028-262100-
CENTRAL LOUISIANA

CITY           SKY/WX    TMP DP  RH WIND       PRES   REMARKS
FORT POLK      CLOUDY    62  55  78 NW16G23   29.91R
ALEXANDRIA INT CLOUDY    62  58  86 NW17G26   29.88R
ALEXANDRIA     LGT RAIN  67  63  87 CALM      29.87S

$$

LAZ001-002-262100-
NORTHWEST LOUISIANA

CITY           SKY/WX    TMP DP  RH WIND       PRES   REMARKS
SHREVEPORT     LGT RAIN  56  50  80 N17G25    30.00R
BARKSDALE AFB  CLOUDY    55  52  88 N17       29.99R
DTN SHREVEPORT CLOUDY    55  49  80 N14G23    30.00R

$$

LAZ014-016-262100-
NORTHEAST LOUISIANA

CITY           SKY/WX    TMP DP  RH WIND       PRES   REMARKS
MONROE         LGT RAIN  65  62  90 N16G30    29.90R FOG
TALLULAH       LGT RAIN  65  63  93 NW6       29.86S FOG

$$




USA.gov is the U.S. government's official web portal to all federal, state and local government web resources and services.